TimeEDT,TemperatureF,Dew PointF,Humidity,Sea Level PressureIn,VisibilityMPH,Wind Direction,Wind SpeedMPH,Gust SpeedMPH,PrecipitationIn,Events,Conditions,WindDirDegrees,DateUTC
12:53 AM,75.0,73.9,96,29.95,10.0,Calm,Calm,-,N/A,,Scattered Clouds,0,2013-07-13 04:53:00
1:53 AM,75.0,73.9,96,29.94,10.0,Calm,Calm,-,N/A,,Scattered Clouds,0,2013-07-13 05:53:00
2:13 AM,75.2,73.4,94,29.94,10.0,South,3.5,-,N/A,,Partly Cloudy,170,2013-07-13 06:13:00
2:53 AM,73.9,73.9,100,29.93,10.0,South,3.5,-,N/A,,Scattered Clouds,170,2013-07-13 06:53:00
3:53 AM,73.0,73.0,100,29.94,8.0,Calm,Calm,-,N/A,,Partly Cloudy,0,2013-07-13 07:53:00
4:53 AM,73.9,73.0,97,29.94,10.0,Calm,Calm,-,N/A,,Scattered Clouds,0,2013-07-13 08:53:00
5:53 AM,73.0,73.0,100,29.94,6.0,Calm,Calm,-,N/A,,Scattered Clouds,0,2013-07-13 09:53:00
6:17 AM,73.4,73.4,100,29.95,9.0,Calm,Calm,-,N/A,,Mostly Cloudy,0,2013-07-13 10:17:00
6:53 AM,73.0,72.0,96,29.94,1.2,Calm,Calm,-,N/A,,Mostly Cloudy,0,2013-07-13 10:53:00
6:56 AM,71.6,71.6,100,29.94,7.0,Calm,Calm,-,N/A,,Mostly Cloudy,0,2013-07-13 10:56:00
7:53 AM,75.0,73.9,96,29.94,10.0,Calm,Calm,-,N/A,,Scattered Clouds,0,2013-07-13 11:53:00
8:27 AM,77.0,75.2,94,29.96,10.0,South,5.8,-,N/A,,Scattered Clouds,170,2013-07-13 12:27:00
8:53 AM,78.1,75.0,90,29.97,10.0,SE,5.8,-,N/A,,Mostly Cloudy,130,2013-07-13 12:53:00
9:00 AM,78.8,75.2,89,29.97,10.0,SE,3.5,-,N/A,,Mostly Cloudy,130,2013-07-13 13:00:00
9:12 AM,78.8,73.4,83,29.98,10.0,SSE,4.6,-,N/A,,Scattered Clouds,160,2013-07-13 13:12:00
9:53 AM,81.0,73.9,79,29.99,10.0,Variable,3.5,-,N/A,,Scattered Clouds,0,2013-07-13 13:53:00
10:53 AM,82.9,73.0,72,29.99,10.0,South,4.6,-,N/A,,Scattered Clouds,180,2013-07-13 14:53:00
11:53 AM,84.0,72.0,67,29.99,10.0,South,3.5,-,N/A,,Mostly Cloudy,180,2013-07-13 15:53:00
12:53 PM,87.1,72.0,61,29.97,10.0,Variable,5.8,-,N/A,,Mostly Cloudy,0,2013-07-13 16:53:00
1:53 PM,90.0,70.0,52,29.95,10.0,Calm,Calm,-,N/A,,Scattered Clouds,0,2013-07-13 17:53:00
2:53 PM,82.9,73.9,74,29.96,8.0,ESE,18.4,-,0.01,Rain,Light Rain,120,2013-07-13 18:53:00
3:53 PM,81.0,71.1,72,29.99,10.0,SSE,15.0,23.0,0.00,,Overcast,160,2013-07-13 19:53:00
4:17 PM,78.8,69.8,74,29.99,10.0,SW,17.3,23.0,N/A,Thunderstorm,Thunderstorm,220,2013-07-13 20:17:00
4:40 PM,78.8,69.8,74,29.98,10.0,SSW,6.9,-,N/A,,Overcast,210,2013-07-13 20:40:00
4:53 PM,77.0,71.1,82,29.98,10.0,WSW,10.4,-,N/A,,Overcast,240,2013-07-13 20:53:00
5:53 PM,77.0,71.1,82,29.98,10.0,SSE,3.5,-,0.00,,Mostly Cloudy,150,2013-07-13 21:53:00
6:53 PM,77.0,73.0,88,29.97,10.0,SSE,4.6,-,0.00,,Mostly Cloudy,160,2013-07-13 22:53:00
7:53 PM,78.1,72.0,81,29.98,10.0,East,4.6,-,N/A,,Mostly Cloudy,90,2013-07-13 23:53:00
8:53 PM,75.9,72.0,87,29.99,10.0,SSE,4.6,-,N/A,,Mostly Cloudy,150,2013-07-14 00:53:00
9:53 PM,75.0,72.0,90,30.01,10.0,SE,6.9,-,N/A,,Mostly Cloudy,130,2013-07-14 01:53:00
10:53 PM,73.9,72.0,93,30.01,10.0,ESE,8.1,-,N/A,,Mostly Cloudy,120,2013-07-14 02:53:00
11:53 PM,73.0,72.0,96,30.02,10.0,SSE,3.5,-,N/A,,Mostly Cloudy,150,2013-07-14 03:53:00